Simultaneous Nadir Overpasses (SNOs) Predictions

Prediction of SNOs between AQUA and GOES-15 Satellite Orbit:

Table of predicted SNOs for the next 14.0 days since TLE Epoch: 5/8/2021
Index Date Time (AQUA) AQUA Lat,Lon GOES-15 Lat,Lon Distance(km) Time Diff (sec)
1 05/09/2021 22:03:59 0.13,-127.15 -0.06,-127.95 90.92 80
2 05/10/2021 10:25:14 0.98,-132.31 0.06,-128.03 486.79 80
3 05/11/2021 21:51:48 0.77,-124.20 -0.05,-128.02 434.06 80
4 05/12/2021 10:13:03 0.34,-129.35 0.05,-128.09 144.03 80
5 05/14/2021 10:00:52 -0.30,-126.40 0.05,-128.15 198.06 80
6 05/14/2021 22:22:16 -0.77,-131.60 -0.05,-128.10 397.78 80
7 05/16/2021 22:10:05 -0.18,-128.64 -0.05,-128.15 56.16 80
8 05/18/2021 21:57:54 0.48,-125.69 -0.06,-128.19 285.11 80
9 05/19/2021 10:19:09 0.58,-130.85 0.06,-128.27 292.33 80
10 05/21/2021 10:06:57 -0.01,-127.88 0.06,-128.31 48.28 80
